Fargo, ND

12:14 AM CST on December 11, 2019 (GMT -0600)
Hector International

Weather History for KFAR - October, 2019

Change the Weather History Date:

Wednesday, October 23, 2019

  Actual Average Record
Temperature  
Mean Temperature 34 °F 42 °F  
Max Temperature 41 °F 52 °F 80 °F (1963)
Min Temperature 28 °F 33 °F 5 °F (1917)
Degree Days  
Heating Degree Days 30 23  
Month to date heating degree days 471 407  
Since 1 July heating degree days 686 677  
Cooling Degree Days 0 0  
Month to date cooling degree days 0 0  
Year to date cooling degree days 527 548  
Moisture  
Dew Point 29 °F    
Average Humidity 78    
Maximum Humidity 92    
Minimum Humidity 59    
Precipitation  
Precipitation 0.00 in 0.06 in 1.80 in (1902)
Month to date precipitation 3.78 1.73  
Year to date precipitation 28.48 20.33  
Snow  
Snow 0.00 in 0.00 in 1.50 in (1936)
Month to date snowfall 4.5 0.3  
Since 1 July snowfall 4.5 0.3  
Since 1 September snowfall 4.5 0.3  
Snow Depth 0.00 in    
Sea Level Pressure  
Sea Level Pressure 29.99 in    
Wind  
Wind Speed 9 mph ()    
Max Wind Speed 18 mph    
Max Gust Speed 25 mph    
Visibility 10.0 miles    
Events      
T = Trace of Precipitation, MM = Missing Value Source: Averaged Metar Reports

Daily Weather History Graph

Daily Weather History Graph

Search for Another Location

Airport or City:

Astronomy

Oct. 23, 2019 Rise Set
Actual Time 7:56 AM CDT 6:26 PM CDT
Civil Twilight 7:25 AM CDT 6:57 PM CDT
Nautical Twilight 6:49 AM CDT 7:32 PM CDT
Astronomical Twilight 6:14 AM CDT 8:07 PM CDT
Moon 1:48 AM CDT (10/23) 4:42 PM CDT (10/23)
Length of Visible Light 11h 31m
Length of Day
10h 29m
Waning Crescent, 26% of the Moon is Illuminated
Oct 23
Waning Crescent
Oct 27
New
Nov 4
First Quarter
Nov 12
Full
Nov 19
Last Quarter

Hourly Weather History & Observations

Time (CDT) Temp. Windchill Dew Point Humidity Pressure Visibility Wind Dir Wind Speed Gust Speed Precip Events Conditions
12:53 AM 36.0 °F 30.3 °F 30.0 °F 79% 29.77 in 10.0 mi West 6.9 mph - N/A   Overcast
1:53 AM 32.0 °F 25.6 °F 28.0 °F 85% 29.78 in 10.0 mi West 6.9 mph - N/A   Partly Cloudy
2:53 AM 32.0 °F 24.8 °F 28.0 °F 85% 29.80 in 10.0 mi WNW 8.1 mph - N/A   Clear
3:53 AM 32.0 °F 23.6 °F 28.0 °F 85% 29.82 in 10.0 mi West 10.4 mph - N/A   Scattered Clouds
4:53 AM 35.1 °F 26.9 °F 28.9 °F 78% 29.83 in 10.0 mi NW 11.5 mph - N/A   Overcast
5:53 AM 34.0 °F 26.6 °F 28.9 °F 82% 29.84 in 10.0 mi NW 9.2 mph - N/A   Overcast
6:53 AM 32.0 °F 24.8 °F 28.0 °F 85% 29.88 in 10.0 mi WNW 8.1 mph - N/A   Mostly Cloudy
7:53 AM 30.9 °F 22.2 °F 28.0 °F 89% 29.89 in 10.0 mi NNW 10.4 mph - N/A   Clear
8:11 AM 32.0 °F 23.6 °F 28.9 °F 88% 29.86 in 10.0 mi NNW 10.4 mph - N/A   Mostly Cloudy
8:33 AM 33.1 °F 23.9 °F 30.0 °F 89% 29.88 in 10.0 mi NW 12.7 mph - N/A   Overcast
8:53 AM 33.1 °F 23.4 °F 30.0 °F 89% 29.92 in 10.0 mi NNW 13.8 mph - N/A   Overcast
9:53 AM 35.1 °F 26.4 °F 30.9 °F 85% 29.93 in 10.0 mi North 12.7 mph 21.9 mph N/A   Overcast
10:53 AM 36.0 °F 28.5 °F 30.9 °F 82% 29.96 in 10.0 mi North 10.4 mph - N/A   Overcast
11:53 AM 37.0 °F 29.8 °F 30.9 °F 79% 29.99 in 10.0 mi NNW 10.4 mph - N/A   Overcast
12:53 PM 37.0 °F 30.4 °F 30.9 °F 79% 30.02 in 10.0 mi NNW 9.2 mph - N/A   Overcast
1:53 PM 37.9 °F 32.1 °F 30.9 °F 76% 30.03 in 10.0 mi NW 8.1 mph - N/A   Overcast
2:53 PM 39.9 °F 32.9 °F 30.9 °F 70% 30.04 in 10.0 mi NNW 11.5 mph - N/A   Overcast
3:53 PM 39.9 °F 32.5 °F 30.9 °F 70% 30.06 in 10.0 mi WNW 12.7 mph - N/A   Overcast
4:37 PM 39.9 °F 31.8 °F 30.9 °F 70% 30.04 in 10.0 mi NW 15.0 mph 20.7 mph N/A   Overcast
4:53 PM 39.9 °F 32.5 °F 30.0 °F 68% 30.09 in 10.0 mi NNW 12.7 mph - N/A   Overcast
5:53 PM 39.0 °F 31.0 °F 28.9 °F 67% 30.12 in 10.0 mi NW 13.8 mph - N/A   Overcast
6:53 PM 37.9 °F 32.1 °F 30.0 °F 73% 30.15 in 10.0 mi NNW 8.1 mph - N/A   Overcast
7:53 PM 37.0 °F 31.0 °F 30.9 °F 79% 30.19 in 10.0 mi NNW 8.1 mph - N/A   Overcast
8:53 PM 37.9 °F 30.9 °F 25.0 °F 60% 30.22 in 10.0 mi NNW 10.4 mph - N/A   Overcast
9:53 PM 34.0 °F 28.0 °F 25.0 °F 70% 30.21 in 10.0 mi West 6.9 mph - N/A   Mostly Cloudy
10:53 PM 32.0 °F 27.5 °F 25.0 °F 75% 30.23 in 10.0 mi NW 4.6 mph - N/A   Clear
11:53 PM 30.0 °F 23.2 °F 24.1 °F 79% 30.24 in 10.0 mi WNW 6.9 mph - N/A   Clear